Location: *
(48.8489°N, 2.3218°E)
Time: 18:26:03
(UTC+00:00)

Cosmos 858 Rocket - Pass Details

Date: 23 August 2019
Orbit: 757 x 774 km, 74.1° (Epoch: 15 October)

Event Time Altitude Azimuth Distance (km) Brightness Sun altitude
Rises 20:53:01 0° 202° (SSW) 3,238 7.5 -17.9°
Reaches altitude 10° 20:55:23 10° 203° (SSW) 2,316 6.8 -18.2°
Maximum altitude 21:00:39 86° 291° (WNW) 783 4.5 -18.8°
Drops below altitude 10° 21:05:58 10° 23° (NNE) 2,329 7.3 -19.5°
Sets 21:08:21 0° 24° (NNE) 3,259 8.1 -19.7°
